Regional Weather Roundup
Issued by NWS

Home | Current Version | Previous Version | Graphics & Text | Print | Product List | Glossary Off
Versions: 1 2 3 4 5 6 7 8 9 10 11 12 13 14 15 16 17 18 19 20 21 22 23 24 25 26 27 28 29 30 31 32 33 34 35 36 37 38 39 40 41 42 43 44 45 46 47 48 49 50

000
ASUS45 KABQ 170510
RWRNM
NEW MEXICO REGIONAL WEATHER ROUNDUP
NATIONAL WEATHER SERVICE ALBUQUERQUE NM
1000 PM MST TUE JAN 16 2018

NOTE: "FAIR" MEANS FEW OR NO CLOUDS BELOW 12,000 FEET AGL WITH NO
       SIGNIFICANT WEATHER OR OBSTRUCTIONS TO VISION.

      THIS PRODUCT IS RELEASED AS TWO VERSIONS.  ONE VERSION NEAR
      THE TOP OF THE HOUR CONTAINING PRELIMINARY DATA FROM ALBUQUERQUE
      AND OTHER STATIONS.  A FINAL VERSION WITH ADDITIONAL DATA IS
      ISSUED ABOUT 10 MINUTES AFTER THE HOUR.

NMZ501-503-504-510>518-170600-
NORTHWEST PLATEAU/NORTHCENTRAL MOUNTAINS

CITY           SKY/WX    TMP DP  RH WIND       PRES   REMARKS
FARMINGTON     FAIR      22  15  75 NE7       30.35R WCI  13
LOS ALAMOS     FAIR      25  15  68 CALM      30.36S
SANTA FE       FAIR      14   9  80 CALM      30.37S
TAOS           FAIR      12   7  80 SE7       30.40R WCI   1
ANGEL FIRE     FAIR       6   1  81 CALM      30.34R

$$
NMZ402-403-502-505>509-170600-
WESTCENTRAL MOUNTAINS/SOUTHWEST MOUNTAINS

CITY           SKY/WX    TMP DP  RH WIND       PRES   REMARKS
GALLUP         FAIR      24  15  68 CALM      30.34S
GRANTS         FAIR      21  13  72 SE5       30.39R WCI  15
SILVER CITY    FAIR      23   7  51 CALM      30.41R

$$
NMZ407-409-411-412-170600-
SOUTHERN DESERTS

CITY           SKY/WX    TMP DP  RH WIND       PRES   REMARKS
DEMING         FAIR      25   8  48 NE8       30.42S WCI  16
LAS CRUCES     FAIR      27   6  41 S6        30.45R WCI  20
HOLLOMAN AFB   FAIR      26   2  36 SE7       30.49R WCI  18
ALAMOGORDO     FAIR      27   1  33 NW3       30.47S
T OR C         FAIR      30   8  39 S5        30.40S WCI  25

$$
NMZ519>523-170600-
CENTRAL VALLEYS/CENTRAL HIGHLANDS

CITY           SKY/WX    TMP DP  RH WIND       PRES   REMARKS
ALBUQUERQUE    FAIR      24  14  65 CALM      30.41R
DOUBLE EAGLE   CLEAR     16   9  73 CALM      30.40S
MORIARTY ARPT  FAIR      18   6  59 CALM      30.40S
CLINES CORNERS FAIR      16   4  59 SW5       30.36S WCI   9
BELEN          FAIR      23  13  66 CALM      30.41R
SOCORRO        FAIR      24   9  52 SW7       30.43R WCI  16

$$
NMZ524>526-539-540-170600-
SOUTHCENTRAL MOUNTAINS

CITY           SKY/WX    TMP DP  RH WIND       PRES   REMARKS
RUIDOSO        FAIR      16   0  48 W6        30.41R WCI   7

$$
NMZ527>531-170600-
NORTHEAST HIGHLANDS/NORTHEAST PLAINS

CITY           SKY/WX    TMP DP  RH WIND       PRES   REMARKS
LAS VEGAS      FAIR      11   6  81 S9        30.35S WCI  -2
RATON          FAIR      13  10  88 N7        30.35S WCI   3
CLAYTON        FAIR      15   8  73 SW8       30.38F WCI   4

$$
NMZ532>537-170600-
EASTCENTRAL PLAINS

CITY           SKY/WX    TMP DP  RH WIND       PRES   REMARKS
SANTA ROSA     FAIR      21   4  48 S6        30.45R WCI  13
TUCUMCARI      FAIR      20   8  60 W6        30.44R WCI  12
CANNON AFB     FAIR      16   3  55 S6        30.50R WCI   8
CLOVIS AIRPORT FAIR      11   2  67 SW8       30.50R WCI  -1

$$
NMZ028-029-538-170600-
SOUTHEAST PLAINS

CITY           SKY/WX    TMP DP  RH WIND       PRES   REMARKS
ROSWELL        FAIR      20   0  41 SW9       30.52S WCI   9
ARTESIA        FAIR      18  -2  41 S7        30.56R WCI   8
CARLSBAD       FAIR      17   0  47 S7        30.56R WCI   8
HOBBS          CLOUDY    18  -2  41 SW6       30.55S WCI   9


$$




USA.gov is the U.S. government's official web portal to all federal, state and local government web resources and services.